TimeEST,TemperatureF,Dew PointF,Humidity,Sea Level PressureIn,VisibilityMPH,Wind Direction,Wind SpeedMPH,Gust SpeedMPH,PrecipitationIn,Events,Conditions,WindDirDegrees,DateUTC
12:15 AM,23.0,19.4,86,30.08,4.0,South,5.8,-,0.00,Snow,Light Snow,180,2012-12-14 05:15:00
12:23 AM,23.0,19.4,86,30.08,5.0,South,6.9,-,0.00,Snow,Light Snow,180,2012-12-14 05:23:00
12:34 AM,23.0,21.2,93,30.08,2.5,South,6.9,-,0.00,Snow,Light Snow,190,2012-12-14 05:34:00
12:53 AM,23.0,21.2,93,30.06,2.5,South,8.1,-,N/A,Snow,Light Snow,190,2012-12-14 05:53:00
1:06 AM,24.8,21.2,86,30.06,3.0,South,8.1,-,0.00,Snow,Light Snow,190,2012-12-14 06:06:00
1:21 AM,24.8,21.2,86,30.05,3.0,South,9.2,-,0.00,Snow,Light Snow,190,2012-12-14 06:21:00
1:53 AM,24.1,21.9,91,30.09,9.0,South,5.8,-,0.00,,Overcast,190,2012-12-14 06:53:00
2:53 AM,25.0,21.9,88,30.07,10.0,South,8.1,-,0.00,,Overcast,170,2012-12-14 07:53:00
3:53 AM,25.0,21.9,88,30.04,10.0,South,6.9,-,N/A,,Overcast,170,2012-12-14 08:53:00
4:53 AM,25.0,21.9,88,30.03,6.0,South,4.6,-,0.00,Snow,Light Snow,170,2012-12-14 09:53:00
5:01 AM,24.8,23.0,93,29.98,2.5,South,4.6,-,0.00,Snow,Light Snow,180,2012-12-14 10:01:00
5:19 AM,24.8,23.0,93,29.97,4.0,SSE,4.6,-,0.00,Snow,Light Snow,160,2012-12-14 10:19:00
5:53 AM,27.0,23.0,85,30.00,10.0,South,6.9,-,0.00,,Overcast,190,2012-12-14 10:53:00
6:53 AM,27.0,24.1,89,29.99,10.0,South,5.8,-,N/A,,Overcast,190,2012-12-14 11:53:00
7:53 AM,27.0,24.1,89,29.97,10.0,South,9.2,-,N/A,,Overcast,190,2012-12-14 12:53:00
8:53 AM,27.0,24.1,89,29.96,10.0,South,5.8,-,N/A,,Overcast,190,2012-12-14 13:53:00
9:53 AM,28.9,25.0,85,29.94,10.0,South,4.6,-,N/A,,Overcast,190,2012-12-14 14:53:00
10:53 AM,30.0,26.1,85,29.91,10.0,SSW,5.8,-,N/A,,Overcast,200,2012-12-14 15:53:00
11:41 AM,30.2,26.6,86,29.86,1.8,SW,8.1,-,0.00,Snow,Light Snow,220,2012-12-14 16:41:00
11:50 AM,30.2,26.6,86,29.85,1.5,SW,8.1,-,0.00,Snow,Light Snow,220,2012-12-14 16:50:00
11:51 AM,30.2,26.6,86,29.85,1.2,SW,9.2,-,0.00,Snow,Light Snow,220,2012-12-14 16:51:00
11:53 AM,30.0,27.0,88,29.88,1.2,SSW,8.1,-,0.00,Snow,Light Snow,210,2012-12-14 16:53:00
11:59 AM,30.2,28.4,93,29.85,0.8,SW,10.4,-,0.00,Snow,Light Snow,220,2012-12-14 16:59:00
12:13 PM,30.2,28.4,93,29.83,1.0,SSW,10.4,-,0.00,Snow,Light Snow,210,2012-12-14 17:13:00
12:17 PM,30.2,28.4,93,29.83,0.8,SSW,9.2,-,0.00,Snow,Light Snow,200,2012-12-14 17:17:00
12:30 PM,30.2,28.4,93,29.82,1.0,SSW,8.1,-,0.01,Snow,Light Snow,200,2012-12-14 17:30:00
12:38 PM,30.2,28.4,93,29.82,1.0,SSW,8.1,-,0.01,Snow,Light Snow,210,2012-12-14 17:38:00
12:53 PM,30.0,28.0,92,29.86,1.0,SW,8.1,-,0.01,Snow,Light Snow,220,2012-12-14 17:53:00
1:05 PM,30.2,28.4,93,29.82,0.8,SW,10.4,-,0.00,Snow,Light Snow,220,2012-12-14 18:05:00
1:35 PM,30.2,28.4,93,29.81,0.8,WSW,9.2,-,0.01,Snow,Light Snow,240,2012-12-14 18:35:00
1:49 PM,30.2,28.4,93,29.81,1.0,SW,10.4,-,0.01,Snow,Light Snow,230,2012-12-14 18:49:00
1:53 PM,30.0,28.0,92,29.85,1.0,WSW,8.1,-,0.01,Snow,Light Snow,240,2012-12-14 18:53:00
2:04 PM,30.2,28.4,93,29.82,1.5,WSW,11.5,-,0.01,Snow,Light Snow,250,2012-12-14 19:04:00
2:06 PM,30.2,28.4,93,29.82,2.0,WSW,9.2,-,0.01,Snow,Light Snow,250,2012-12-14 19:06:00
2:13 PM,30.2,28.4,93,29.82,3.0,WSW,12.7,-,0.01,Snow,Light Snow,250,2012-12-14 19:13:00
2:39 PM,30.2,28.4,93,29.82,4.0,West,11.5,-,0.01,Snow,Light Snow,260,2012-12-14 19:39:00
2:53 PM,30.9,28.0,89,29.86,8.0,West,11.5,-,0.01,,Overcast,260,2012-12-14 19:53:00
3:53 PM,30.0,28.0,92,29.87,8.0,WSW,9.2,-,0.00,,Overcast,250,2012-12-14 20:53:00
4:36 PM,30.2,28.4,93,29.86,9.0,West,9.2,-,0.00,,Overcast,280,2012-12-14 21:36:00
4:53 PM,30.0,28.0,92,29.90,8.0,West,12.7,-,0.00,,Overcast,280,2012-12-14 21:53:00
5:27 PM,30.2,26.6,86,29.87,9.0,WNW,13.8,21.9,0.00,,Overcast,300,2012-12-14 22:27:00
5:51 PM,30.2,24.8,80,29.88,10.0,WNW,18.4,27.6,0.00,,Overcast,300,2012-12-14 22:51:00
5:53 PM,30.0,24.1,79,29.92,10.0,WNW,17.3,27.6,0.00,,Overcast,300,2012-12-14 22:53:00
6:53 PM,26.1,21.0,81,29.96,10.0,NNW,20.7,27.6,N/A,,Overcast,330,2012-12-14 23:53:00
7:53 PM,23.0,17.1,78,29.99,10.0,NW,15.0,27.6,0.00,Snow,Light Snow,320,2012-12-15 00:53:00
8:53 PM,21.0,16.0,81,30.02,7.0,NW,15.0,24.2,0.00,Snow,Light Snow,310,2012-12-15 01:53:00
9:53 PM,19.0,12.9,77,30.04,10.0,NNW,17.3,27.6,0.00,,Overcast,330,2012-12-15 02:53:00
10:53 PM,17.1,10.9,77,30.06,10.0,NNW,21.9,32.2,0.00,,Overcast,330,2012-12-15 03:53:00
11:53 PM,14.0,8.1,77,30.09,10.0,NNW,18.4,29.9,0.00,,Overcast,340,2012-12-15 04:53:00